FW9243 Weather Reports


time (UTC)temp
C
wind
direction
speed
KPH
gust
KPH
rain 1hr
cm
rain 24hr
cm
rain mn
cm
humidity
%
barometer
mb
20260507014942 8 63 1.6 3.2 0.00 0.05 0.00 93 1012.2
20260507014538 -17 0 0.0 1.6 0.00 0.58 0.00 100 1012.7
20260507014443 8 45 0.0 1.6 0.00 0.05 0.00 93 1012.2
20260507013938 8 269 0.0 3.2 0.00 0.05 0.00 93 1012.2
20260507013659 8 168 0.0 3.2 0.00 0.05 0.00 93 1012.3
20260507013417 8 165 1.6 3.2 0.00 0.05 0.00 93 1012.3
20260507013033 -17 0.0 1.6 0.00 0.58 0.00 1012.9
20260507012437 9 1 0.0 3.2 0.00 0.05 0.00 93 1012.4
20260507011936 9 168 3.2 3.2 0.00 0.05 0.00 93 1012.4
20260507011539 8 0.0 1.6 0.00 0.58 0.00 100 1013.0
20260507011437 8 152 3.2 3.2 0.00 0.05 0.00 92 1012.5
20260507010936 9 178 1.6 3.2 0.00 0.05 0.00 92 1012.5
20260507010654 9 178 0.0 1.6 0.00 0.05 0.00 92 1012.6
20260507010057 -17 0 0.0 1.6 0.00 0.58 0.00 100 1013.1
20260507005935 9 165 1.6 1.6 0.00 0.05 0.00 92 1012.6
20260507005705 9 165 0.0 1.6 0.00 0.05 0.00 92 1012.6
20260507004935 9 152 0.0 1.6 0.00 0.05 0.00 92 1012.6
20260507004538 -17 0 0.0 1.6 0.00 0.58 0.00 100 1013.1
20260507004437 9 1 0.0 1.6 0.00 0.05 0.00 92 1012.6
20260507004156 9 269 1.6 1.6 0.00 0.05 0.00 92 1012.6
20260507003656 10 223 0.0 1.6 0.00 0.05 0.00 92 1012.5
20260507003200 10 45 0.0 1.6 0.00 0.05 0.00 92 1012.5
20260507003040 -17 0 0.0 1.6 0.00 0.58 0.00 100 1013.1
20260507002436 10 152 0.0 1.6 0.00 0.05 0.00 92 1012.6
20260507001935 10 178 0.0 1.6 0.00 0.05 0.00 92 1012.7
20260507001540 -17 0.0 0.0 0.00 0.58 0.00 1013.2
20260507001434 10 269 1.6 1.6 0.00 0.05 0.00 92 1012.6
20260507000935 10 152 1.6 1.6 0.00 0.05 0.00 91 1012.7
20260507000435 10 269 0.0 3.2 0.00 0.05 0.00 91 1012.7
20260507000042 -17 1.6 1.6 0.00 0.58 0.00 100 1013.3
20260506235934 10 1 0.0 3.2 0.00 0.05 0.00 91 1012.9
20260506235434 10 45 0.0 1.6 0.00 0.05 0.00 91 1012.9
20260506234934 10 161 0.0 1.6 0.00 0.05 0.00 91 1012.9
20260506234654 10 89 0.0 1.6 0.00 0.05 0.00 91 1013.0
20260506234540 -17 0 0.0 0.0 0.00 0.58 0.00 1013.4
20260506233934 10 45 0.0 3.2 0.00 0.05 0.00 91 1013.1
20260506233434 10 45 0.0 3.2 0.00 0.05 0.00 91 1013.1
20260506233038 10 158 1.6 1.6 0.00 0.58 0.00 100 1013.5
20260506232933 10 152 1.6 3.2 0.00 0.05 0.00 91 1013.1
20260506232433 10 109 1.6 3.2 0.00 0.05 0.00 91 1013.1
20260506231933 10 76 1.6 3.2 0.00 0.05 0.00 90 1013.1
20260506231551 -17 51 0.0 0.0 0.00 0.58 0.00 100 1013.6
20260506231433 10 178 0.0 1.6 0.00 0.05 0.00 90 1013.1
20260506230933 11 20 0.0 1.6 0.00 0.05 0.00 90 1013.1
20260506230433 11 314 0.0 1.6 0.00 0.05 0.00 90 1013.1
20260506230157 11 45 0.0 3.2 0.00 0.05 0.00 90 1013.1
20260506230050 10 0.0 0.0 0.00 0.58 0.00 100 1013.6
20260506225433 11 45 0.0 3.2 0.00 0.05 0.00 90 1013.1
20260506224933 11 45 1.6 1.6 0.00 0.05 0.00 89 1013.1
20260506224539 11 0 0.0 0.0 0.00 0.58 0.00 100 1013.8
20260506224433 11 45 0.0 1.6 0.00 0.05 0.00 89 1013.3
20260506223932 11 89 0.0 1.6 0.00 0.05 0.00 90 1013.3
20260506223432 11 269 0.0 1.6 0.00 0.05 0.00 90 1013.3
20260506223040 11 0 0.0 0.0 0.00 0.58 0.00 100 1013.9
20260506222933 11 45 0.0 1.6 0.00 0.05 0.00 90 1013.4
20260506222432 11 241 0.0 1.6 0.00 0.05 0.00 90 1013.6
20260506221932 11 89 0.0 1.6 0.00 0.05 0.00 89 1013.6
20260506221542 -17 0 0.0 0.0 0.00 0.58 0.00 100 1014.1
20260506221432 11 314 0.0 1.6 0.00 0.05 0.00 89 1013.5
20260506221155 11 135 1.6 1.6 0.00 0.05 0.00 89 1013.8
20260506220432 11 152 0.0 3.2 0.00 0.05 0.00 89 1013.8
20260506220045 -17 0 0.0 1.6 0.00 0.58 0.00 100 1014.3
20260506215932 11 157 1.6 3.2 0.00 0.05 0.05 88 1013.8
20260506215431 11 152 0.0 1.6 0.00 0.05 0.05 88 1013.9
20260506215150 11 161 0.0 1.6 0.00 0.05 0.05 88 1013.9
20260506214701 11 178 0.0 1.6 0.00 0.05 0.05 88 1013.8
20260506214538 -17 0.0 1.6 0.00 0.58 0.58 1014.3
20260506213932 12 1 0.0 1.6 0.00 0.05 0.05 88 1013.9
20260506213431 12 45 0.0 1.6 0.00 0.05 0.05 88 1013.8
20260506213040 -17 0.0 0.0 0.00 0.58 0.58 1014.3
20260506212931 12 269 0.0 1.6 0.00 0.05 0.05 87 1013.9
20260506212653 12 1 0.0 1.6 0.00 0.05 0.05 87 1013.9
20260506211931 12 45 0.0 1.6 0.00 0.05 0.05 87 1013.8
20260506211537 12 0 0.0 0.0 0.00 0.58 0.58 100 1014.3
20260506211431 12 1 0.0 3.2 0.00 0.05 0.05 87 1013.8
20260506210931 12 1 1.6 3.2 0.00 0.05 0.05 87 1013.8
20260506210431 12 314 0.0 1.6 0.00 0.05 0.05 87 1013.9
20260506210052 12 9 1.6 1.6 0.00 0.58 0.58 100 1014.3
20260506205931 12 1 0.0 1.6 0.00 0.05 0.05 87 1013.8
20260506205431 12 1 1.6 1.6 0.00 0.05 0.05 87 1013.9
20260506204931 12 45 0.0 3.2 0.00 0.05 0.05 87 1013.9
20260506204538 12 0 0.0 1.6 0.00 0.58 0.58 100 1014.4
20260506204430 12 45 0.0 3.2 0.00 0.05 0.05 87 1013.9
20260506203931 12 269 0.0 3.2 0.00 0.05 0.05 87 1013.9
20260506203430 12 1 1.6 3.2 0.00 0.05 0.05 87 1013.8
20260506203037 12 9 0.0 1.6 0.00 0.58 0.58 100 1014.3
20260506202931 12 45 1.6 3.2 0.00 0.05 0.05 87 1013.8
20260506202429 12 1 1.6 3.2 0.00 0.05 0.05 87 1013.8
20260506201931 12 28 1.6 3.2 0.00 0.05 0.05 87 1013.6
20260506201539 12 1.6 3.2 0.00 0.58 0.58 100 1014.1
20260506201430 12 20 1.6 4.8 0.00 0.05 0.05 87 1013.6
20260506201153 12 20 3.2 4.8 0.00 0.05 0.05 86 1013.5
20260506200429 12 23 1.6 3.2 0.00 0.05 0.05 86 1013.5
20260506200037 12 30 3.2 3.2 0.00 0.58 0.58 100 1014.1
20260506195930 12 20 1.6 3.2 0.00 0.05 0.05 86 1013.5
20260506195429 12 1 1.6 3.2 0.00 0.05 0.05 86 1013.6
20260506194930 12 10 1.6 3.2 0.00 0.05 0.05 85 1013.6
20260506194540 12 24 1.6 3.2 0.00 0.58 0.58 100 1014.2
20260506194429 12 10 3.2 3.2 0.00 0.05 0.05 85 1013.8
20260506193930 12 17 3.2 4.8 0.00 0.05 0.05 84 1013.6
20260506193429 12 20 1.6 4.8 0.00 0.05 0.05 85 1013.6
20260506193038 12 9 3.2 3.2 0.00 0.58 0.58 100 1014.2
20260506192930 13 1 3.2 4.8 0.00 0.05 0.05 84 1013.8
20260506192429 13 28 3.2 4.8 0.00 0.05 0.05 84 1013.8
20260506191929 13 337 1.6 3.2 0.00 0.05 0.05 84 1013.6
20260506191538 12 292 1.6 3.2 0.00 0.58 0.58 100 1014.0
20260506191428 13 45 1.6 4.8 0.00 0.05 0.05 84 1013.6
20260506191200 13 327 1.6 4.8 0.00 0.05 0.05 83 1013.6
20260506190428 13 350 1.6 4.8 0.00 0.05 0.05 84 1013.6
20260506190039 12 31 3.2 3.2 0.00 0.58 0.58 100 1014.1
20260506185929 13 30 3.2 6.4 0.00 0.05 0.05 84 1013.6
20260506185427 13 1 3.2 8.0 0.00 0.05 0.05 83 1013.5
20260506184931 13 20 4.8 8.0 0.00 0.05 0.05 83 1013.5
20260506184540 13 28 4.8 6.4 0.00 0.58 0.58 100 1014.0
20260506184428 13 23 4.8 8.0 0.00 0.05 0.05 83 1013.5
20260506183929 13 353 4.8 8.0 0.00 0.05 0.05 82 1013.5
20260506183646 13 44 4.8 8.0 0.00 0.05 0.05 82 1013.6
20260506183042 13 45 4.8 6.4 0.00 0.58 0.58 82 1014.1
20260506182929 13 23 4.8 8.0 0.00 0.05 0.05 82 1013.8
20260506182427 13 24 3.2 8.0 0.00 0.05 0.05 82 1013.8
20260506182154 13 321 3.2 9.7 0.00 0.05 0.05 81 1013.6
20260506181540 -17 9 1.6 4.8 0.00 0.58 0.58 1014.2
20260506181427 13 13 3.2 9.7 0.00 0.05 0.05 81 1013.8
20260506180928 13 39 3.2 8.0 0.00 0.05 0.05 81 1013.8
20260506180426 13 27 6.4 8.0 0.00 0.05 0.05 78 1013.6
20260506180150 13 32 6.4 9.7 0.00 0.05 0.05 78 1013.8
20260506180041 15 6.4 12.9 0.00 0.58 0.58 73 1014.1
20260506175426 14 14 8.0 14.5 0.00 0.05 0.05 77 1013.8
20260506174927 14 11 8.0 14.5 0.00 0.05 0.05 76 1013.6
20260506174538 15 33 8.0 12.9 0.00 0.58 0.58 73 1014.2
20260506174426 15 24 9.7 14.5 0.00 0.05 0.05 75 1013.6
20260506173928 15 21 8.0 11.3 0.00 0.05 0.05 72 1013.6
20260506173426 16 330 4.8 8.0 0.00 0.05 0.05 71 1013.8
20260506173148 16 329 3.2 11.3 0.00 0.05 0.05 70 1013.8
20260506173044 15 239 3.2 3.2 0.00 0.58 0.58 72 1014.2
20260506172653 16 323 6.4 17.7 0.00 0.05 0.05 72 1013.9
20260506171927 16 234 3.2 17.7 0.00 0.05 0.05 71 1013.9
20260506171548 15 316 4.8 9.7 0.00 0.58 0.58 71 1014.3
20260506171426 16 344 6.4 14.5 0.00 0.05 0.05 73 1013.9
20260506170927 16 241 3.2 9.7 0.00 0.05 0.05 72 1013.9
20260506170425 15 331 3.2 9.7 0.00 0.05 0.05 73 1013.9
20260506170038 15 319 6.4 8.0 0.00 0.58 0.58 73 1014.4
20260506165926 15 216 3.2 8.0 0.00 0.05 0.05 74 1013.9
20260506165426 15 230 4.8 9.7 0.00 0.05 0.05 73 1014.1
20260506164926 15 341 4.8 9.7 0.00 0.05 0.05 74 1014.2
20260506164532 15 38 3.2 6.4 0.00 0.58 0.58 73 1014.6
20260506164425 15 348 6.4 11.3 0.00 0.05 0.05 73 1014.2
20260506163926 16 351 4.8 11.3 0.00 0.05 0.05 74 1014.1
20260506163424 16 309 3.2 9.7 0.00 0.05 0.05 74 1014.0
20260506163039 15 239 4.8 11.3 0.00 0.58 0.58 74 1014.5
20260506162926 15 251 6.4 9.7 0.00 0.05 0.05 74 1014.0
20260506162645 15 312 6.4 9.7 0.00 0.05 0.05 74 1014.0
20260506161925 15 272 6.4 14.5 0.00 0.05 0.05 74 1014.0
20260506161642 15 276 8.0 14.5 0.00 0.05 0.05 77 1014.1
20260506161542 15 279 6.4 12.9 0.00 0.58 0.58 97 1014.5
20260506160925 15 330 8.0 16.1 0.00 0.05 0.05 76 1014.1
20260506160424 15 323 8.0 16.1 0.00 0.05 0.05 76 1014.2
20260506160045 15 321 3.2 12.9 0.00 0.58 0.58 97 1014.6
20260506155925 15 347 3.2 14.5 0.00 0.05 0.05 77 1014.2
20260506155424 15 330 6.4 14.5 0.00 0.05 0.05 77 1014.3
20260506154925 15 343 6.4 14.5 0.00 0.05 0.05 77 1014.3
20260506154641 15 323 3.2 11.3 0.00 0.05 0.05 76 1014.2
20260506154535 15 342 4.8 9.7 0.00 0.58 0.58 96 1014.6
20260506153925 15 306 4.8 11.3 0.00 0.05 0.05 75 1014.3
20260506153424 15 320 3.2 9.7 0.00 0.05 0.05 75 1014.3
20260506153040 15 257 3.2 6.4 0.00 0.58 0.58 74 1014.7
20260506152924 15 38 3.2 9.7 0.00 0.05 0.05 73 1014.3
20260506152423 15 345 6.4 14.5 0.00 0.05 0.05 75 1014.3
20260506151925 15 254 8.0 14.5 0.00 0.05 0.05 76 1014.3
20260506151543 15 273 8.0 9.7 0.00 0.58 0.58 76 1014.7
20260506151423 15 316 9.7 11.3 0.00 0.05 0.05 76 1014.3
20260506150924 15 279 6.4 11.3 0.00 0.05 0.05 78 1014.4
20260506150422 15 247 6.4 9.7 0.00 0.05 0.05 80 1014.4
20260506150038 14 293 4.8 6.4 0.00 0.58 0.58 100 1014.9
20260506145924 14 331 4.8 8.0 0.00 0.05 0.05 82 1014.5
20260506145909 14 265 3.2 11.3 0.00 0.05 0.05 82 1014.5
20260506144924 13 306 4.8 11.3 0.00 0.05 0.05 83 1014.6
20260506144552 13 344 3.2 6.4 0.00 0.58 0.58 100 1015.0
20260506144422 13 117 3.2 6.4 0.00 0.05 0.05 84 1014.6
20260506143925 13 300 4.8 6.4 0.00 0.05 0.05 84 1014.6
20260506143422 13 292 3.2 9.7 0.00 0.05 0.05 84 1014.7
20260506143037 13 325 3.2 6.4 0.00 0.58 0.58 79 1015.1
20260506142923 13 338 4.8 9.7 0.00 0.05 0.05 84 1014.8
20260506142422 13 321 1.6 6.4 0.00 0.05 0.05 83 1014.7
20260506141923 13 283 3.2 4.8 0.00 0.05 0.05 83 1014.7
20260506141532 13 16 1.6 4.8 0.00 0.58 0.58 79 1015.1
20260506141422 13 286 1.6 6.4 0.00 0.05 0.05 82 1014.8
20260506140923 14 135 3.2 6.4 0.00 0.05 0.05 80 1014.8
20260506140422 14 254 3.2 4.8 0.00 0.05 0.05 80 1014.8
20260506140035 14 257 1.6 3.2 0.00 0.58 0.58 79 1015.3
20260506135923 14 254 3.2 4.8 0.00 0.05 0.05 79 1015.0
20260506135421 14 331 1.6 4.8 0.00 0.05 0.05 79 1014.9
20260506134922 15 300 3.2 4.8 0.00 0.05 0.05 78 1015.0
20260506134538 14 265 1.6 4.8 0.00 0.58 0.58 77 1015.3
20260506134421 15 337 1.6 8.0 0.00 0.05 0.05 78 1014.9
20260506133922 15 269 3.2 8.0 0.00 0.05 0.05 78 1015.0
20260506133420 15 309 1.6 6.4 0.00 0.05 0.05 76 1015.0
20260506133039 -17 3.2 3.2 0.00 0.58 0.58 74 1015.4
20260506132922 15 323 3.2 6.4 0.00 0.05 0.05 75 1015.0
20260506132910 15 16 3.2 6.4 0.00 0.05 0.05 77 1015.1
20260506131922 15 290 3.2 8.0 0.00 0.05 0.05 75 1015.0
20260506131647 15 20 6.4 9.7 0.00 0.05 0.05 73 1015.0
20260506131543 15 32 6.4 6.4 0.00 0.58 0.58 72 1015.4
20260506130921 15 42 6.4 9.7 0.00 0.05 0.05 72 1015.0
20260506130420 15 30 3.2 4.8 0.00 0.05 0.05 73 1015.1
20260506130035 15 178 1.6 8.0 0.00 0.58 0.58 1015.4
20260506125921 15 75 3.2 8.0 0.00 0.05 0.05 74 1015.1
20260506125641 15 56 3.2 8.0 0.00 0.05 0.05 73 1015.1
20260506124921 15 63 3.2 6.4 0.00 0.05 0.05 75 1015.1
20260506124643 14 348 3.2 8.0 0.00 0.05 0.05 73 1015.1
20260506124534 -17 0 0.0 0.0 0.00 0.58 0.58 1015.5
20260506123920 14 6 4.8 8.0 0.00 0.05 0.05 74 1015.2
20260506123420 14 8 6.4 8.0 0.00 0.05 0.05 78 1015.2
20260506123039 14 54 4.8 6.4 0.00 0.58 0.58 98 1015.6
20260506122921 14 39 4.8 8.0 0.00 0.05 0.05 77 1015.3
20260506122419 14 35 4.8 9.7 0.00 0.05 0.05 78 1015.3
20260506121920 14 51 4.8 9.7 0.00 0.05 0.05 77 1015.4
20260506121539 14 78 4.8 8.0 0.00 0.58 0.58 97 1015.7
20260506121419 14 21 4.8 9.7 0.00 0.05 0.05 77 1015.4
20260506120920 14 16 6.4 9.7 0.00 0.05 0.05 76 1015.5
20260506120420 14 72 3.2 9.7 0.00 0.05 0.05 78 1015.4
20260506120145 14 66 4.8 6.4 0.00 0.05 0.05 78 1015.5
20260506120036 14 338 4.8 6.4 0.00 0.58 0.58 99 1015.8
20260506115418 15 28 3.2 9.7 0.00 0.05 0.05 79 1015.5
20260506114920 15 324 6.4 9.7 0.00 0.05 0.05 79 1015.5
20260506114541 14 9 6.4 9.7 0.00 0.58 0.58 99 1015.8
20260506114419 15 330 4.8 9.7 0.00 0.05 0.05 79 1015.5
20260506113919 15 76 3.2 9.7 0.00 0.05 0.05 80 1015.6
20260506113418 15 16 6.4 9.7 0.00 0.05 0.05 83 1015.6
20260506113035 13 342 3.2 4.8 0.00 0.58 0.58 100 1015.9
20260506112919 14 20 3.2 11.3 0.00 0.05 0.05 84 1015.7
20260506112402 14 347 6.4 11.3 0.00 0.05 0.05 86 1015.7
20260506111902 14 334 6.4 11.3 0.00 0.05 0.05 86 1015.7
20260506111539 13 26 1.6 3.2 0.00 0.58 0.58 100 1015.9
20260506111402 13 286 3.2 11.3 0.00 0.05 0.05 87 1015.6
20260506110902 13 341 6.4 9.7 0.00 0.05 0.05 87 1015.7
20260506110403 13 351 6.4 9.7 0.00 0.05 0.05 86 1015.8
20260506110125 13 76 6.4 9.7 0.00 0.05 0.05 84 1015.7
20260506110039 13 317 3.2 14.5 0.00 0.58 0.58 100 1016.0
20260506105627 13 353 3.2 14.5 0.00 0.05 0.05 82 1015.7
20260506104904 14 344 8.0 14.5 0.00 0.05 0.05 81 1015.8
20260506104537 14 323 6.4 8.0 0.00 0.58 0.58 100 1016.0
20260506104401 14 354 4.8 6.4 0.00 0.05 0.05 81 1015.7
20260506104124 14 344 3.2 6.4 0.00 0.08 0.05 81 1015.7
20260506103402 14 319 3.2 4.8 0.00 0.08 0.05 80 1015.8
20260506103123 14 23 1.6 6.4 0.00 0.08 0.05 81 1015.8
20260506103038 14 282 1.6 4.8 0.00 0.58 0.58 100 1016.0
20260506102403 14 35 3.2 6.4 0.00 0.08 0.05 82 1015.7
20260506101904 14 1 1.6 4.8 0.00 0.08 0.05 82 1015.7
20260506101533 13 26 1.6 3.2 0.00 0.58 0.58 100 1015.9
20260506101402 14 306 3.2 4.8 0.00 0.10 0.05 82 1015.6
20260506100903 -17 1 3.2 3.2 0.00 0.10 0.05 1015.5
20260506100402 -17 0.0 0.0 0.00 0.10 0.05 1015.6
20260506100127 -17 0.0 0.0 0.00 0.10 0.05 1015.6
20260506100046 11 309 0.0 1.6 0.00 0.58 0.58 100 1015.8
20260506095620 -17 0.0 0.0 0.00 0.10 0.05 1015.6
20260506094903 -17 0.0 0.0 0.00 0.10 0.05 1015.6
20260506094540 11 265 0.0 1.6 0.00 0.58 0.58 100 1015.9
20260506094402 -17 269 0.0 1.6 0.00 0.10 0.05 1015.7
20260506093903 12 269 0.0 1.6 0.00 0.10 0.05 92 1015.7
20260506093622 12 35 0.0 1.6 0.00 0.20 0.05 92 1015.7
20260506093037 11 0 0.0 1.6 0.00 0.58 0.58 100 1015.9
20260506092904 12 241 1.6 3.2 0.00 0.20 0.05 92 1015.6
20260506092402 12 231 1.6 3.2 0.00 0.20 0.05 93 1015.6
20260506092125 12 45 1.6 3.2 0.00 0.23 0.05 93 1015.6
20260506091536 11 212 0.0 3.2 0.00 0.58 0.58 100 1015.9
20260506091402 12 213 1.6 4.8 0.00 0.23 0.05 93 1015.7
20260506090902 12 152 3.2 4.8 0.00 0.23 0.05 93 1015.7
20260506090402 12 1 1.6 4.8 0.00 0.23 0.05 94 1015.7
20260506090035 11 298 0.0 3.2 0.58 0.58 0.58 100 1015.9
20260506085901 12 223 1.6 3.2 0.00 0.23 0.05 94 1015.6
20260506085848 11 269 1.6 3.2 0.00 0.23 0.05 94 1015.7
20260506084902 11 178 1.6 3.2 0.00 0.23 0.05 95 1015.7
20260506084540 11 26 1.6 3.2 0.58 0.58 0.58 100 1016.0
20260506084401 11 341 1.6 3.2 0.00 0.23 0.05 95 1015.7
20260506083903 11 324 1.6 3.2 0.00 0.23 0.05 95 1015.7
20260506083402 12 331 1.6 3.2 0.00 0.23 0.05 95 1015.6
20260506083126 11 213 1.6 3.2 0.00 0.23 0.05 96 1015.6
20260506083039 11 265 0.0 3.2 0.58 0.58 0.58 100 1015.9
20260506082402 11 314 1.6 3.2 0.00 0.23 0.05 95 1015.7
20260506081902 11 178 1.6 3.2 0.00 0.23 0.05 96 1015.7
20260506081535 9 221 1.6 3.2 0.58 0.58 0.58 100 1015.9
20260506081401 11 152 1.6 3.2 0.00 0.23 0.05 96 1015.7
20260506080902 11 197 1.6 3.2 0.00 0.23 0.05 96 1015.8
20260506080625 11 45 1.6 1.6 0.00 0.23 0.05 96 1015.7
20260506080122 11 223 0.0 1.6 0.00 0.23 0.05 95 1015.8
20260506073125 10 178 3.2 4.8 0.00 0.28 0.05 95 1015.7
20260506073035 9 153 3.2 4.8 0.00 0.00 0.00 100 1015.9
20260506072402 10 138 3.2 4.8 0.00 0.28 0.05 95 1015.7
20260506071902 10 157 3.2 4.8 0.00 0.28 0.05 95 1015.6
20260506071542 9 0 1.6 3.2 0.00 0.00 0.00 100 1015.9
20260506071402 10 89 1.6 3.2 0.00 0.28 0.05 95 1015.7
20260506070902 10 178 0.0 3.2 0.00 0.28 0.05 95 1015.6
20260506070401 10 1 1.6 3.2 0.00 0.28 0.05 95 1015.7
20260506062403 10 147 3.2 4.8 0.03 0.28 0.03 95 1015.4
20260506061902 10 154 4.8 6.4 0.03 0.28 0.03 95 1015.4
20260506061536 9 163 3.2 4.8 0.00 0.08 0.00 100 1015.6
20260506061404 10 147 4.8 6.4 0.03 0.28 0.03 95 1015.4
20260506060902 10 151 3.2 4.8 0.03 0.30 0.03 95 1015.3
20260506060403 10 314 0.0 1.6 0.03 0.30 0.03 94 1015.3
20260506051124 9 135 0.0 4.8 0.00 0.28 0.03 95 1015.2
20260506050402 9 89 1.6 4.8 0.00 0.28 0.03 95 1015.1
20260506044903 9 152 1.6 4.8 0.00 0.28 0.03 94 1015.1
20260506044543 9 144 3.2 4.8 0.00 0.08 0.00 100 1015.4
20260506044401 9 157 3.2 4.8 0.00 0.28 0.00 94 1015.1
20260506043902 9 45 0.0 3.2 0.00 0.28 0.00 94 1015.2
20260506043402 9 157 1.6 1.6 0.00 0.28 0.00 94 1015.1
20260506043132 9 152 1.6 1.6 0.00 0.28 0.00 94 1015.2
20260506043041 9 51 0.0 1.6 0.00 0.08 0.00 100 1015.5
20260506042401 10 213 0.0 3.2 0.00 0.28 0.00 94 1015.2
20260506041902 10 59 1.6 3.2 0.00 0.28 0.00 94 1015.2
20260506041539 9 34 0.0 3.2 0.00 0.08 0.00 100 1015.6
20260506041402 9 45 0.0 4.8 0.00 0.28 0.00 94 1015.4
20260506040901 9 161 1.6 4.8 0.00 0.28 0.00 94 1015.3
20260506040402 9 152 1.6 4.8 0.00 0.28 0.00 94 1015.3
20260506040039 9 160 1.6 3.2 0.00 0.08 0.00 100 1015.7
20260506035902 9 145 3.2 3.2 0.00 0.28 0.00 94 1015.3
20260506035401 9 140 1.6 3.2 0.00 0.28 0.00 93 1015.4
20260506035126 9 135 1.6 3.2 0.00 0.28 0.00 93 1015.4
20260506034539 9 0 0.0 1.6 0.00 0.08 0.00 100 1015.7
20260506034401 10 142 1.6 3.2 0.00 0.28 0.00 94 1015.4
20260506033903 10 269 0.0 1.6 0.00 0.28 0.00 94 1015.4
20260506033402 10 45 0.0 1.6 0.00 0.28 0.00 94 1015.4
20260506033036 9 0 0.0 1.6 0.00 0.08 0.00 100 1015.8
20260506032903 10 135 0.0 3.2 0.00 0.28 0.00 94 1015.5
20260506032402 10 117 0.0 3.2 0.00 0.28 0.00 94 1015.5
20260506032123 10 63 0.0 1.6 0.00 0.28 0.00 94 1015.5
20260506031627 10 178 0.0 3.2 0.00 0.28 0.00 94 1015.6
20260506031539 -17 0 0.0 1.6 0.00 0.08 0.00 100 1015.9
20260506030902 10 178 0.0 3.2 0.00 0.28 0.00 94 1015.6
20260506030402 10 152 1.6 3.2 0.00 0.28 0.00 94 1015.5
20260506030057 -17 137 0.0 1.6 0.00 0.08 0.00 100 1015.9
20260506025903 10 63 0.0 3.2 0.00 0.28 0.00 94 1015.6
20260506025401 10 161 1.6 3.2 0.00 0.28 0.00 94 1015.7
20260506024902 10 178 1.6 3.2 0.00 0.28 0.00 93 1015.7
20260506024552 -17 178 0.0 1.6 0.00 0.08 0.00 100 1015.9
20260506024402 10 223 0.0 1.6 0.00 0.28 0.00 93 1015.7
20260506023902 10 178 0.0 1.6 0.00 0.28 0.00 93 1015.7
20260506023619 10 1 0.0 1.6 0.00 0.28 0.00 93 1015.7
20260506023038 -17 0 0.0 1.6 0.00 0.08 0.00 100 1015.9
20260506022901 10 117 0.0 1.6 0.00 0.28 0.00 93 1015.7
20260506022850 10 135 0.0 1.6 0.00 0.28 0.00 93 1015.8
20260506022123 10 135 0.0 3.2 0.00 0.28 0.00 93 1015.7
20260506021536 9 0.0 1.6 0.00 0.08 0.00 100 1016.1
20260506021402 10 178 0.0 3.2 0.00 0.28 0.00 93 1015.8
20260506020902 10 45 0.0 1.6 0.00 0.28 0.00 93 1015.8
20260506020401 10 223 1.6 1.6 0.00 0.28 0.00 93 1015.8
20260506020039 9 51 0.0 1.6 0.00 0.08 0.00 100 1016.1
20260506015902 10 223 0.0 1.6 0.00 0.28 0.00 93 1015.9